Regional Weather Roundup
Issued by NWS

Home | Current Version | Previous Version | Graphics & Text | Print | Product List | Glossary On
Versions: 1 2 3 4 5 6 7 8 9 10 11 12 13 14 15 16 17 18 19 20 21 22 23 24 25 26 27 28 29 30 31 32 33 34 35 36 37 38 39 40 41 42 43 44 45 46 47 48 49 50
000
ASUS43 KIND 270009
RWRIN

WEATHER ROUNDUP FOR INDIANA
NATIONAL WEATHER SERVICE INDIANAPOLIS IN
800 PM EDT MON SEP 26 2016

NOTE: "FAIR" INDICATES FEW OR NO CLOUDS BELOW 12,000 FEET WITH NO
SIGNIFICANT WEATHER AND/OR OBSTRUCTIONS TO VISIBILITY.

* - STATION DOES NOT REPORT WEATHER SUCH AS PRECIPITATION OR FOG.

+ - STATION NOT QUALITY CONTROLLED BY THE NATIONAL WEATHER SERVICE.
    USE DATA WITH CAUTION...ESPECIALLY DEWPOINT AND RELATIVE
    HUMIDITY OBSERVATIONS.

INZ001>003-010>013-019-020-270100-
NORTHWEST INDIANA

CITY           SKY/WX    TMP DP  RH WIND       PRES   REMARKS
GARY /AIRPORT/ CLEAR     68  30  24 W23G39    29.95R
KNOX *+        CLEAR     64  -2   7 W10G16    29.95R
LA PORTE +     CLEAR     62  35  36 W7        29.95R
6HR MIN TEMP:  62; 6HR MAX TEMP:  71;

MICHIGAN CITY+ CLEAR     63  37  39 MISG      29.94S
MONTICELLO +   CLEAR     64  26  23 W6        29.97S
6HR MIN TEMP:  64; 6HR MAX TEMP:  72;

RENSSELAER +   CLEAR     64  30  27 W7        29.97S
VALPARAISO     CLEAR     60  37  42 SW7       29.96R
6HR MIN TEMP:  60; 6HR MAX TEMP:  70;


$$

LMZ046-743>745-270100-
SOUTHERN LAKE MICHIGAN

STATION/POSITION TIME  TEMP    WIND        PRES    WAVE
                       AIR SEA DIR/SP/G            HT
                 (UTC) (F)     (DEG/KT/KT) (MB)    (FT)
BURNS HARBOR     0003   67     260/ 22     1014.2R
MICHIGAN CITY    2300   67     240/ 24/ 27   N/A
5NW MICH CITY    0000   68 67  290/ 21/ 29   N/A     6

$$

INZ004-005-014>016-021>024-270100-
NORTH CENTRAL INDIANA

CITY           SKY/WX    TMP DP  RH WIND       PRES   REMARKS
GOSHEN         CLEAR     59  37  44 SW7       29.94R
6HR MIN TEMP:  58; 6HR MAX TEMP:  69; 6HR PCP: TRACE;

LOGANSPORT +   CLEAR     59  37  44 SW6       29.98S
PERU/GRISSOM   CLEAR     61  38  41 W9        29.96R
6HR MIN TEMP:  61; 6HR MAX TEMP:  71;

ROCHESTER +    CLEAR     64  36  34 W5        29.96S
SOUTH BEND     CLEAR     57  41  55 W8        29.94R
6HR MIN TEMP:  57; 6HR MAX TEMP:  68;

WARSAW +       CLEAR     61  30  31 W9        29.95R

$$

INZ006>009-017-018-025>027-270100-
NORTHEAST INDIANA

CITY           SKY/WX    TMP DP  RH WIND       PRES   REMARKS
ANGOLA *+        N/A     61  52  72 W3        29.94R
AUBURN +       CLEAR     61  36  39 SW5       29.96R
FORT WAYNE     CLEAR     62  38  40 SW7       29.96R
6HR MIN TEMP:  62; 6HR MAX TEMP:  71;

HUNTINGTON +   CLEAR     62  35  37 W7        29.96S
KENDALLVILLE + CLEAR     58  40  49 SW6       29.95R

$$

INZ028-029-035-036-043>045-051>053-270100-
WEST CENTRAL INDIANA

CITY           SKY/WX    TMP DP  RH WIND       PRES   REMARKS
CRAWFORDSVL +  CLEAR     59  41  49 SW6       30.02R
6HR MIN TEMP:  59; 6HR MAX TEMP:  70; 6HR PCP:  0.01;

GREENCASTLE +  CLEAR     55  52  88 CALM      30.03S
LAFAYETTE      CLEAR     62  38  40 W5        29.99R
6HR MIN TEMP:  61; 6HR MAX TEMP:  71;

TERRE HAUTE    CLEAR     64  40  41 W7        30.03R
6HR MIN TEMP:  64; 6HR MAX TEMP:  74; 6HR PCP: TRACE;


$$

INZ030>032-037>040-046>048-054>057-064-065-270100-
CENTRAL INDIANA

CITY           SKY/WX    TMP DP  RH WIND       PRES   REMARKS
COLUMBUS       CLEAR     63  50  63 SW7       30.03S
FRANKFORT +    MOCLDY    61  40  45 W6        30.02R
6HR MIN TEMP:  61; 6HR MAX TEMP:  74;

GREENWOOD *+   CLEAR     63  46  55 SW5       30.03R
INDIANAPOLIS   PTCLDY    61  42  49 SW8       30.01S
6HR MIN TEMP:  61; 6HR MAX TEMP:  71;

-EAGLE CREEK   CLEAR     65  39  38 SW5       30.00S
6HR MIN TEMP:  65; 6HR MAX TEMP:  71;

MARION +       CLEAR     62  36  37 W8        29.99R
MT COMFORT *+  CLEAR     61  41  48 W6        30.02R
SHELBYVILLE    CLEAR     60  46  59 S7        30.01S
6HR MIN TEMP:  60; 6HR MAX TEMP:  71;

ZIONSVILLE +   CLEAR     59  40  49 SW6       30.01S
6HR MIN TEMP:  59; 6HR MAX TEMP:  69;


$$

INZ033-034-041-042-049-050-058-059-270100-
EAST CENTRAL INDIANA

CITY           SKY/WX    TMP DP  RH WIND       PRES   REMARKS
MUNCIE         CLEAR     64  41  42 SW6       30.00R
6HR MIN TEMP:  64; 6HR MAX TEMP:  71;


$$

INZ060-061-067>069-081>083-085>088-270100-
SOUTHWEST INDIANA

CITY           SKY/WX    TMP DP  RH WIND       PRES   REMARKS
EVANSVILLE     CLEAR     65  50  58 W3        30.07R
6HR MIN TEMP:  65; 6HR MAX TEMP:  74;

HUNTINGBURG *+   N/A     63  46  55 CALM      30.07R
6HR MIN TEMP:  63; 6HR MAX TEMP:  72;

WASHINGTON +   CLEAR     57  53  84 MISG      30.05R
6HR MIN TEMP:  57; 6HR MAX TEMP:  71; 6HR PCP:  0.45;


$$

INZ062-063-066-070>080-084-089>092-270100-
SOUTH CENTRAL AND SOUTHEAST INDIANA

CITY           SKY/WX    TMP DP  RH WIND       PRES   REMARKS
BLOOMINGTON    CLEAR     58  51  78 SW5       30.04S
6HR MIN TEMP:  58; 6HR MAX TEMP:  71;

MADISON *+     CLEAR     57  54  88 CALM      30.08R
SEYMOUR +      CLEAR     61  50  67 CALM      30.04F

$$





USA.gov is the U.S. government's official web portal to all federal, state and local government web resources and services.